Weather in Krasnoznamenskoye

Russia / Kurgan Oblast     55°15′21″N   64°01′27″E
temp.,
°C
wind,
m/s
gust,
m/s
humid.,
%
clouds,
%
prec.,
mm/h
press.,
hPa
HPBL,
m
28 january, thu
thu2823:00−6wsw478960 0.0 102999
02:00−6sw488896 0.0 1029128
05:00−6sw5108764 0.0 1029183
08:00−6sw6128750 0.0 1028263
11:00−6sw7138675 0.0 1028355
14:00−5sw81584100 0.0 1027402
17:00−6sw71686100 0.0 1027365
20:00−6sw71686100 0.0 1027354
29 january, fri
fri2923:00−7sw61487100 0.0 1027295
02:00−9sw61186100 0.0 1027259
05:00−10sw51187100 0.0 1027231
08:00−11ssw51188100 0.0 1027206
11:00−10ssw5988100 0.0 1027249
14:00−8ssw51088100 0.0 1027283
17:00−9ssw51089100 0.0 1027219
20:00−11s4990100 0.0 1026169
30 january, sat
sat3023:00−12s4990100 0.0 1026167
02:00−12s51089100 0.0 1025182
05:00−12s51089100 0.0 1024186
08:00−9sse51189100 0.0 1022230
11:00−7s61288100 0.0 1020413
14:00−4s61187100 0.0 1019541
17:00−6s51290100 0.0 1017431
20:00−7s51192100 0.0 1017397
31 january, sun
sun3123:00−7ssw4895100 0.2 1017307
02:00−9ssw349693 0.3 101778
05:00−11sw349571 0.3 101841
08:00−11sw339367 0.0 101834
11:00−9wsw239267 0.0 101969
14:00−6sw1290100 0.0 102089
17:00−8sw1288100 0.0 102121
20:00−10sw118755 0.0 102221
1 february, mon
mon123:00−10s228731 0.0 102321
02:00−11s228832 0.0 102321
05:00−11s349037 0.0 102328
08:00−12s349269 0.0 102246
11:00−9s599056 0.0 1022233
14:00−6s611910 0.0 1021319
17:00−7ssw6129028 0.0 1020338
20:00−6sw61195100 0.3 1020297